SCP
0 0 0 0 0 0 0 0 0 0 0 0 0 0 0 0 0 0 0 0 0 0 0 0 0 1 2 2 2 2 2 2 2 2 2 2 1 1 1 1 0 0 0 0
0 0 0 0 0 0 0 0 0 0 0 0 0 0 0 0 0 0 0 0 0 0 0 0 0 1 1 1 2 2 2 2 2 2 2 2 1 1 1 1 0 0 0 0
0 0 0 0 0 0 0 0 0 0 0 0 0 0 0 0 0 0 0 0 0 0 0 0 0 0 1 1 1 1 1 1 1 1 1 1 1 1 1 1 1 0 0 0
0 0 0 0 0 0 0 0 0 0 0 0 0 0 0 0 0 0 0 0 0 0 0 0 0 0 0 1 1 1 1 1 1 1 1 1 1 1 1 1 1 0 0 0
0 0 0 0 0 0 0 0 0 0 0 0 0 0 0 0 0 0 0 0 0 0 0 0 0 0 0 0 1 1 1 0 0 0 0 0 0 1 1 1 1 0 0 0
0 0 0 0 0 0 0 0 0 0 0 0 0 0 0 0 0 0 0 0 0 0 0 0 0 0 0 0 0 0 0 0 0 0 0 0 0 0 1 1 1 0 0 0
0 0 0 0 0 0 0 0 0 0 0 0 0 0 0 0 0 0 0 0 0 0 0 0 0 0 0 0 0 0 0 0 0 0 0 0 0 0 0 0 0 0 0 0
0 0 0 0 0 0 0 0 0 0 0 0 0 0 0 0 0 0 0 0 0 0 0 0 0 0 0 0 0 0 0 0 0 0 0 0 0 0 0 0 0 0 0 0
0 0 0 0 0 0 0 0 0 0 0 0 0 0 0 0 0 0 0 0 0 0 0 0 0 0 0 0 0 0 0 0 0 0 0 0 0 0 0 0 0 0 0 0
0 0 0 0 0 0 0 0 0 0 0 0 0 0 0 0 0 0 0 0 0 0 0 0 0 0 0 0 0 0 0 0 0 0 0 0 0 0 0 0 0 0 0 0
0 0 0 0 0 0 0 0 0 0 0 0 0 0 0 0 0 0 0 0 0 0 0 0 0 0 0 0 0 0 0 0 0 0 0 0 0 0 0 0 0 0 0 0
0 0 0 0 0 0 0 0 0 0 0 0 0 0 0 0 0 0 0 0 0 0 0 0 0 0 0 0 0 0 0 0 0 0 0 0 0 0 0 0 0 0 0 0
0 0 0 0 0 0 0 0 0 0 0 0 0 0 0 0 0 0 0 0 0 0 0 0 0 0 0 0 0 0 0 0 0 0 0 0 0 0 0 0 0 0 0 0
0 0 0 0 0 0 0 0 0 0 0 0 0 0 0 0 0 0 0 0 0 0 0 0 0 0 0 0 0 0 0 0 0 0 0 0 0 0 0 0 0 0 0 0
0 0 0 0 0 0 0 0 0 0 0 0 0 0 0 0 0 0 0 0 0 0 0 0 0 0 0 0 0 0 0 0 0 0 0 0 0 0 0 0 0 0 0 0
0 0 0 0 0 0 0 0 0 0 0 0 0 0 0 0 0 0 0 0 0 0 0 0 0 0 0 0 0 0 0 0 0 0 0 0 0 0 0 0 0 0 0 0
0 0 0 0 0 0 0 0 0 0 0 0 0 0 0 0 0 0 0 0 0 0 0 0 0 0 0 0 0 0 0 0 0 0 0 0 0 0 0 0 0 0 0 0
0 0 0 0 0 0 0 0 0 0 0 0 0 0 0 0 0 0 0 0 0 0 0 0 0 0 0 0 0 0 0 0 0 0 0 0 0 0 0 0 0 0 0 0
0 0 0 0 0 0 0 0 0 0 0 0 0 0 0 0 0 0 0 0 0 0 0 0 0 0 0 0 0 0 0 0 0 0 0 0 0 0 0 0 0 0 0 0
0 0 0 0 0 0 0 0 0 0 0 0 0 0 0 0 0 0 0 0 0 0 0 0 0 0 0 0 0 0 0 0 0 0 0 0 0 0 0 0 0 0 0 0
0 0 0 0 0 0 0 0 0 0 0 0 0 0 0 0 0 0 0 0 0 0 0 0 0 0 0 0 0 0 0 0 0 0 0 0 0 0 0 0 0 0 0 0
0 0 0 0 0 0 0 0 0 0 0 0 0 0 0 0 0 0 0 0 0 0 0 0 0 0 0 0 0 0 0 0 0 0 0 0 0 0 0 0 0 0 0 0
0 0 0 0 0 0 0 0 0 0 0 0 0 0 0 0 0 0 0 0 0 0 0 0 0 0 0 0 0 0 0 0 0 0 0 0 0 0 0 0 0 0 0 0
0 0 0 0 0 0 0 0 0 0 0 0 0 0 0 0 0 0 0 0 0 0 0 0 0 0 0 0 0 0 0 0 0 0 0 0 0 0 0 0 0 0 0 0
0 0 0 0 0 0 0 0 0 0 0 0 0 0 0 0 0 0 0 0 0 0 0 0 0 0 0 0 0 0 0 0 0 0 0 0 0 0 0 0 0 0 0 0
0 0 0 0 0 0 0 0 0 0 0 0 0 0 0 0 0 0 0 0 0 0 0 0 0 0 0 0 0 0 0 0 0 0 0 0 0 0 0 0 0 0 0 0
-0 -0 0 0 0 0 0 0 0 0 0 0 0 0 0 0 0 0 0 0 0 0 0 0 0 0 0 0 0 0 0 0 0 0 0 0 0 0 0 0 0 0 0 0
Wind_Speed
9 9 9 11 12 10 11 10 10 11 14 14 13 12 11 9 7 7 6 5 4 3 3 2 3 5 6 8 9 11 11 12 13 13 12 12 12 13 12 12 12 12 11 10
8 10 10 14 14 13 14 13 13 15 17 12 10 8 8 6 5 6 6 6 5 5 3 3 3 4 5 6 8 10 11 11 10 11 11 12 12 12 12 12 11 11 12 11
6 6 7 11 11 12 11 9 9 12 12 9 9 9 8 5 4 5 7 7 6 5 5 4 4 5 6 6 7 9 10 9 10 11 11 11 11 12 12 12 11 11 11 11
4 2 9 9 4 7 10 11 8 9 9 9 11 11 7 3 3 5 6 6 6 6 5 5 3 2 4 5 7 8 9 9 9 10 10 11 11 12 12 10 11 11 11 11
4 5 9 7 4 5 7 8 5 7 9 9 9 7 4 4 5 6 6 6 6 6 5 4 2 2 4 5 7 8 9 10 10 10 10 11 12 11 10 10 9 9 10 11
5 5 8 6 5 5 4 7 4 5 8 7 5 4 6 8 6 6 6 5 5 4 3 2 2 2 5 6 7 8 9 9 9 10 11 11 11 10 8 9 9 9 9 9
8 8 9 7 5 0 3 6 4 3 5 5 4 6 8 8 7 6 6 7 5 3 3 3 2 3 5 6 7 7 7 7 8 9 10 10 9 8 10 9 9 9 9 7
6 7 10 3 1 3 6 5 4 4 5 5 7 7 7 7 7 7 7 7 5 3 3 3 2 4 5 6 5 6 7 8 8 8 8 8 10 9 10 11 11 9 9 7
8 9 5 3 5 6 5 5 5 5 6 6 7 8 8 8 8 7 7 7 5 4 3 3 3 4 5 4 5 7 8 8 8 8 8 9 11 11 10 10 9 9 8 8
6 8 8 8 6 6 6 8 7 7 6 5 7 8 9 8 8 7 7 6 5 4 3 3 3 3 4 5 6 7 9 9 9 9 9 8 8 9 9 9 9 9 9 9
8 9 8 8 7 8 8 9 9 7 7 7 8 9 9 9 8 8 7 6 5 5 5 4 3 3 4 6 7 8 8 9 9 8 9 8 7 6 8 7 10 11 9 10
9 8 7 8 7 7 8 9 9 9 10 9 8 9 9 9 8 7 7 6 5 5 5 4 3 4 6 7 8 9 9 9 8 8 7 7 7 6 6 7 11 12 12 12
10 9 9 11 10 8 9 10 10 10 10 11 9 8 9 9 8 7 7 6 6 6 5 5 4 5 6 7 8 9 10 9 8 8 8 8 8 9 8 8 10 11 14 15
7 7 9 9 10 10 11 11 10 10 9 9 9 8 8 8 8 8 8 8 6 6 5 5 5 6 6 7 7 8 9 9 9 8 8 8 8 8 8 9 9 6 8 15
7 7 9 11 11 10 10 9 10 10 10 9 8 8 8 9 9 9 8 6 5 5 6 5 6 6 5 7 7 9 9 8 8 7 7 8 8 8 8 9 9 8 7 9
9 9 9 10 12 12 11 10 11 11 10 10 10 9 9 9 9 8 7 6 6 7 6 6 7 6 6 7 7 7 7 11 10 8 8 8 8 9 9 9 9 9 9 9
9 10 10 11 12 13 12 12 12 11 11 11 11 9 8 8 8 8 7 6 6 7 6 6 6 5 7 8 7 7 8 10 12 9 8 8 9 9 9 10 9 9 8 9
9 11 11 12 12 13 14 13 12 12 11 11 10 9 8 8 9 8 6 5 4 5 5 5 6 6 7 7 7 7 8 8 8 8 8 8 9 9 9 9 10 10 8 9
10 11 11 12 12 12 13 13 12 12 11 10 9 9 9 8 8 7 5 5 5 6 5 5 8 8 7 8 8 8 9 9 8 8 8 12 10 9 9 9 10 9 9 8
10 11 12 12 12 11 12 11 11 11 10 8 8 8 8 8 7 6 5 6 6 5 5 6 7 7 8 9 10 8 9 10 10 9 9 9 9 9 9 9 10 9 9 8
12 12 12 12 12 11 10 10 10 10 9 8 8 8 8 7 5 5 4 4 3 4 6 8 6 6 7 10 11 8 9 10 10 10 10 10 10 10 9 9 9 9 8 8
11 11 12 11 11 11 10 9 9 9 8 8 7 7 6 5 4 3 4 3 2 4 4 4 5 8 11 12 8 9 9 10 9 9 9 9 10 10 10 10 9 8 8 8
10 11 11 11 11 11 10 8 7 7 7 6 6 5 5 4 3 3 2 2 3 5 4 4 8 14 15 10 8 9 10 10 10 9 9 9 9 9 10 10 9 9 8 8
10 10 11 10 10 9 9 8 6 5 5 4 3 2 2 2 1 1 2 4 6 6 4 7 13 15 13 8 8 9 9 9 9 9 9 9 9 9 9 9 9 8 8 9
10 10 9 9 8 7 7 7 6 4 2 2 2 2 1 1 2 2 3 4 7 8 6 9 13 14 9 8 8 9 8 8 9 10 9 9 9 9 9 8 9 8 8 8
9 8 7 7 7 6 5 4 3 3 2 2 3 3 3 3 4 4 4 6 8 9 7 7 8 9 8 8 9 9 9 10 10 9 9 9 10 10 9 9 10 8 8 7
8 7 6 6 6 5 5 4 3 2 2 2 2 3 3 4 5 5 6 6 7 7 7 7 7 7 8 9 9 9 9 9 9 9 9 9 9 9 9 10 8 8 7 7
Wind_Direction
252 259 259 258 255 244 232 230 240 256 264 277 292 294 294 295 303 310 314 313 299 284 282 250 207 194 192 190 185 180 180 185 189 185 181 180 180 181 179 179 181 180 178 180
264 255 260 264 259 250 247 244 245 258 267 276 287 292 287 289 298 305 308 307 302 291 272 247 218 202 193 187 183 178 181 185 181 176 176 177 178 176 175 176 175 174 177 178
264 280 288 261 239 236 241 239 240 252 267 298 298 294 282 267 275 294 302 302 299 292 272 250 229 208 196 188 176 176 178 176 174 173 174 175 172 171 174 175 172 174 177 177
259 274 245 248 231 232 243 250 251 264 285 291 287 289 273 263 289 295 298 294 292 288 287 279 253 219 192 174 172 173 172 173 171 170 171 168 169 173 174 171 172 174 175 175
228 246 266 274 257 227 232 251 259 271 289 300 304 302 285 311 305 284 285 286 280 273 269 267 256 205 169 167 171 171 175 175 172 168 165 166 170 171 166 164 166 169 169 169
221 240 250 259 277 267 227 257 270 273 287 296 319 301 287 309 312 302 302 295 287 281 281 256 252 187 169 171 174 181 181 176 169 165 165 168 169 163 157 158 161 159 160 166
225 241 260 268 288 44 187 254 285 273 281 286 267 258 284 298 298 289 291 293 290 269 261 251 228 183 179 180 187 182 167 159 159 162 163 161 157 155 152 151 150 151 150 153
206 229 250 256 161 200 240 261 274 273 275 282 281 289 296 294 292 292 298 300 296 282 273 270 224 189 189 198 183 155 153 154 155 155 153 150 149 150 150 149 148 147 143 141
207 226 246 236 226 241 248 269 274 272 272 275 284 293 299 298 293 290 289 289 282 271 263 260 233 200 196 196 158 151 150 151 149 149 150 152 152 153 152 152 152 153 152 152
249 259 264 268 268 269 267 266 269 269 271 274 279 286 290 292 292 290 284 285 280 272 256 253 250 226 201 175 160 155 155 152 150 150 149 149 151 155 156 158 156 155 157 155
250 266 281 268 261 267 274 277 278 276 269 271 276 281 281 283 285 281 278 280 269 257 247 247 243 223 185 171 164 161 158 152 150 149 149 148 147 155 158 164 165 161 162 159
248 252 255 269 275 279 284 285 281 280 281 277 268 272 276 275 277 277 273 278 276 268 254 247 226 214 187 178 171 163 160 157 154 150 147 145 138 118 103 133 144 149 152 152
252 267 266 272 278 278 278 282 282 277 277 281 277 269 270 271 271 271 268 266 263 259 252 239 222 211 191 181 174 173 168 160 152 151 150 150 147 143 131 106 111 131 143 145
262 274 274 276 282 286 283 284 284 280 277 278 278 274 271 269 269 266 261 257 256 255 247 230 218 213 191 178 173 170 161 156 153 152 152 152 150 147 144 142 136 122 130 140
268 267 268 280 285 286 286 287 288 285 283 282 279 273 268 267 266 265 263 255 251 248 242 224 215 210 183 172 169 164 159 155 149 146 146 147 144 140 137 135 135 131 125 132
288 285 280 281 284 288 291 289 285 284 284 283 281 276 269 264 265 265 259 244 237 238 234 219 215 202 176 168 163 158 156 153 150 148 146 145 144 141 140 140 139 140 143 142
288 289 289 290 288 288 287 283 281 281 281 281 279 277 271 265 265 263 257 247 241 243 233 216 209 187 174 170 166 159 152 150 149 147 150 151 148 146 145 144 144 143 143 151
276 277 279 281 284 287 288 285 282 281 278 277 278 276 265 256 257 259 254 245 240 244 235 209 190 178 174 171 165 157 153 154 154 153 150 148 145 142 141 141 143 140 139 145
290 287 287 286 283 281 282 283 283 281 279 278 275 269 263 256 253 252 243 234 227 230 231 193 182 177 171 169 161 153 151 149 148 146 143 144 141 139 141 142 142 143 144 144
301 299 296 295 290 283 283 284 284 281 277 273 270 266 262 256 249 243 238 237 233 217 189 176 170 171 168 162 156 152 152 152 150 146 143 143 142 141 142 142 143 144 146 146
309 308 304 303 299 291 286 285 283 280 278 271 262 259 257 255 243 229 223 238 248 191 175 173 171 167 160 156 153 152 151 149 148 146 144 143 141 141 141 142 143 145 145 143
309 308 307 307 306 301 296 290 283 279 278 272 262 254 248 243 233 222 224 223 201 173 166 164 163 162 157 152 149 147 146 143 142 140 141 143 144 143 144 144 144 143 142 143
309 308 309 309 307 303 300 297 292 285 279 271 257 243 233 228 215 200 215 209 168 162 155 155 154 152 149 142 140 141 141 140 140 139 140 141 141 141 142 142 142 142 142 141
312 312 311 309 309 308 308 310 309 300 292 286 271 238 208 193 189 185 159 152 148 141 136 142 145 145 139 132 133 134 135 134 134 133 133 133 132 133 135 137 137 137 137 137
312 312 313 317 318 315 314 315 318 322 338 7 20 29 56 115 130 125 119 124 125 119 116 127 129 128 124 123 126 128 129 131 132 132 131 131 132 131 132 133 135 136 136 137
315 315 313 313 313 316 319 322 329 342 6 30 31 36 57 76 95 104 106 105 108 108 108 112 114 112 112 115 118 119 120 123 122 122 125 125 127 128 129 130 130 132 133 134
316 318 320 323 327 330 332 337 346 357 16 52 57 54 70 82 90 94 97 99 99 97 97 99 100 103 107 109 111 112 113 113 114 116 119 120 123 124 127 127 127 127 129 132